Voltar ao catálogo

TIANZHI-2C

AtivoCiênciaSSO
NORAD 61905·PAYLOAD·🇨🇳 China
Este nome de satélite ainda não foi confirmado por fontes oficiais.

Lançado Nov 11, 2024 de Jiuquan Satellite Launch Center

Loading…

Próximas Passagens (próximas 24 horas)

TLE

AtualizadoSource: Space-Track

Época: Sep 14, 2026, 18:11 UTC

1 61905U 24205M   26257.75779625  .00016489  00000-0  45312-3 0  9990
2 61905  97.3545 331.8211 0018609 113.2222 247.0984 15.37115018102214

Acompanhe TIANZHI-2C em tempo real com AllMySat

Download on the App Store